{"data":{"norad_id":53916,"epoch":"2026-05-25T03:34:15.301344Z","epoch_age_seconds":59410,"freshness":"FRESH","line1":"1 53916U 22119AG  26145.14878821 -.00000394  00000+0 -66809-5 0  9997","line2":"2 53916  53.2140 310.5344 0001332  92.7393 267.3752 15.08834727203667","mean_motion":15.08834727,"eccentricity":0.0001332,"inclination_deg":53.214,"raan_deg":310.5344,"arg_perigee_deg":92.7393,"mean_anomaly_deg":267.3752,"bstar":-6.6809e-6,"rev_number":20366,"period_min":95.43788820815,"perigee_km":538.83804264789,"apogee_km":540.68097027721,"semimajor_km":6917.8965064625,"source":"CELESTRAK","updated_at":"2026-05-25T13:38:17.612304Z"}}